Location: Holyhead Bay
(53.3667°N, 4.6667°W)
Time: 19:52:53
(UTC+00:00)

Meteor 1-26 Rocket - Pass Details

Date: 24 November 2020
Orbit: 807 x 928 km, 81.3° (Epoch: 17 January)

Event Time Altitude Azimuth Distance (km) Brightness Sun altitude
Rises 18:35:46 0° 178° (S) 3,553 7.5 -21.0°
Reaches altitude 10° 18:38:15 10° 175° (S) 2,621 6.8 -21.3°
Maximum altitude 18:44:09 60° 96° (E) 1,057 4.3 -22.2°
Enters shadow 18:48:26 19° 23° (NNE) 2,046 5.9 -22.8°
